Tracking 19638 objects as of 20-Apr-2019
HD Live streaming from Space Station
objects crossing your sky now

THORAD AGENA D DEB

Track THORAD AGENA D DEB now!
10-day predictions


NORAD ID: 5153
Int'l Code: 1970-025JW
Perigee: 1,033.5 km
Apogee: 1,082.0 km
Inclination: 100.1 °
Period: 106.2 minutes
Semi major axis: 7428 km
RCS: 0.0057 m2 (small)
Launch date: April 8, 1970
Source: United States (US)
Launch site: AIR FORCE WESTERN TEST RANGE (AFWTR)

Note: This is SATELLITE DEBRIS
aabbcc
Your satellite tracking list
Your tracking list is empty




NASA's NSSDC Master Catalog

Two Line Element Set (TLE):
1  5153U 70025JW  19109.66855931  .00000138  00000-0  26464-3 0  9998
2  5153 100.1031 148.5319 0032678 268.0947 218.0210 13.55909126414740
Source of the keplerian elements: AFSPC